| time (UTC) | temp F | wind direction | speed knots | gust knots | rain 1hr in | rain 24hr in | rain mn in | humidity % | barometer mb |
| 20260509071549 | 60 | 78 | 0.0 | 3.5 | 0.00 | 0.00 | 0.00 | 66 | 1019.8 |
| 20260509070049 | 59 | 148 | 0.0 | 2.6 | 0.00 | 0.00 | 0.00 | 69 | 1019.8 |
| 20260509064541 | 58 | 28 | 0.0 | 0.0 | 0.00 | 0.00 | 0.00 | 69 | 1019.8 |
| 20260509063041 | 58 | 90 | 0.0 | 1.7 | 0.00 | 0.00 | 0.00 | 71 | 1019.7 |
| 20260509061535 | 57 | 270 | 0.0 | 2.6 | 0.00 | 0.00 | 0.00 | 71 | 1019.7 |
| 20260509060032 | 56 | 289 | 0.0 | 2.6 | 0.00 | 0.00 | 0.00 | 74 | 1019.6 |
| 20260509054529 | 55 | 258 | 0.0 | 2.6 | 0.00 | 0.00 | 0.00 | 76 | 1019.5 |
| 20260509053038 | 53 | 309 | 0.0 | 1.7 | 0.00 | 0.00 | 0.00 | 80 | 1019.5 |
| 20260509051524 | 52 | 346 | 0.0 | 1.7 | 0.00 | 0.00 | 0.00 | 82 | 1019.3 |
| 20260509050041 | 50 | 9 | 0.0 | 0.9 | 0.00 | 0.00 | 0.00 | 85 | 1019.1 |
| 20260509044518 | 49 | 13 | 0.0 | 0.9 | 0.00 | 0.00 | 0.00 | 87 | 1019.0 |
| 20260509043030 | 48 | 13 | 0.0 | 0.0 | 0.00 | 0.00 | 0.00 | 87 | 1018.9 |
| 20260509041514 | 48 | 13 | 0.0 | 0.0 | 0.00 | 0.00 | 0.00 | 87 | 1018.8 |
| 20260509040011 | 47 | 13 | 0.0 | 0.0 | 0.00 | 0.00 | 0.00 | 86 | 1018.8 |
| 20260509034509 | 48 | 13 | 0.0 | 0.9 | 0.00 | 0.00 | 0.00 | 86 | 1018.8 |
| 20260509033008 | 48 | 13 | 0.0 | 0.0 | 0.00 | 0.00 | 0.00 | 85 | 1018.8 |
| 20260509031507 | 48 | 13 | 0.0 | 0.0 | 0.00 | 0.00 | 0.00 | 85 | 1018.9 |
| 20260509030017 | 49 | 13 | 0.0 | 0.0 | 0.00 | 0.00 | 0.00 | 86 | 1018.8 |
| 20260509024505 | 48 | 13 | 0.0 | 0.0 | 0.00 | 0.00 | 0.00 | 86 | 1018.9 |
| 20260509023005 | 48 | 13 | 0.0 | 0.0 | 0.00 | 0.00 | 0.00 | 85 | 1018.8 |
| 20260509021503 | 49 | 13 | 0.0 | 0.0 | 0.00 | 0.00 | 0.00 | 84 | 1018.8 |
| 20260509020001 | 49 | 13 | 0.0 | 0.0 | 0.00 | 0.00 | 0.00 | 83 | 1018.8 |
| 20260509014558 | 50 | 13 | 0.0 | 0.0 | 0.00 | 0.00 | 0.00 | 83 | 1018.7 |
| 20260509013105 | 50 | 13 | 0.0 | 0.0 | 0.00 | 0.00 | 0.00 | 82 | 1018.7 |
| 20260509011603 | 51 | 13 | 0.0 | 0.0 | 0.00 | 0.00 | 0.00 | 82 | 1018.7 |
| 20260509010057 | 51 | 13 | 0.0 | 0.0 | 0.00 | 0.00 | 0.00 | 81 | 1018.7 |
| 20260509004559 | 52 | 13 | 0.0 | 0.0 | 0.00 | 0.00 | 0.00 | 81 | 1018.6 |
| 20260509003051 | 52 | 13 | 0.0 | 0.0 | 0.00 | 0.00 | 0.00 | 81 | 1018.6 |
| 20260509001553 | 52 | 14 | 0.0 | 0.9 | 0.00 | 0.00 | 0.00 | 80 | 1018.7 |
| 20260509000050 | 52 | 36 | 0.0 | 0.0 | 0.00 | 0.00 | 0.00 | 80 | 1018.7 |
| 20260508234548 | 52 | 46 | 0.0 | 0.9 | 0.00 | 0.00 | 0.00 | 80 | 1018.7 |
| 20260508233048 | 52 | 69 | 0.0 | 0.0 | 0.00 | 0.00 | 0.00 | 80 | 1018.7 |
| 20260508231552 | 53 | 69 | 0.0 | 0.0 | 0.00 | 0.00 | 0.00 | 79 | 1018.8 |
| 20260508230040 | 54 | 69 | 0.0 | 0.0 | 0.00 | 0.00 | 0.00 | 77 | 1018.7 |
| 20260508224559 | 54 | 69 | 0.0 | 0.0 | 0.00 | 0.00 | 0.00 | 76 | 1018.7 |
| 20260508223035 | 55 | 69 | 0.0 | 0.0 | 0.00 | 0.00 | 0.00 | 74 | 1018.7 |
| 20260508221539 | 56 | 69 | 0.0 | 0.9 | 0.00 | 0.00 | 0.00 | 74 | 1018.6 |
| 20260508220033 | 57 | 65 | 0.0 | 0.0 | 0.00 | 0.00 | 0.00 | 72 | 1018.5 |
| 20260508214537 | 58 | 66 | 0.0 | 0.9 | 0.00 | 0.00 | 0.00 | 71 | 1018.4 |
| 20260508213032 | 58 | 65 | 0.0 | 2.6 | 0.00 | 0.00 | 0.00 | 70 | 1018.3 |
| 20260508211526 | 59 | 87 | 0.0 | 1.7 | 0.00 | 0.00 | 0.00 | 68 | 1018.2 |
| 20260508210023 | 59 | 89 | 0.0 | 0.9 | 0.00 | 0.00 | 0.00 | 66 | 1018.0 |
| 20260508204523 | 60 | 142 | 0.0 | 6.1 | 0.00 | 0.00 | 0.00 | 64 | 1017.9 |
| 20260508203021 | 60 | 98 | 0.0 | 2.6 | 0.00 | 0.00 | 0.00 | 62 | 1017.6 |
| 20260508201520 | 61 | 92 | 0.0 | 2.6 | 0.00 | 0.00 | 0.00 | 60 | 1017.5 |
| 20260508200035 | 61 | 211 | 0.0 | 1.7 | 0.00 | 0.00 | 0.00 | 58 | 1017.4 |
| 20260508194518 | 60 | 297 | 0.0 | 0.9 | 0.00 | 0.00 | 0.00 | 58 | 1017.2 |
| 20260508193019 | 60 | 57 | 0.0 | 0.9 | 0.00 | 0.00 | 0.00 | 58 | 1017.0 |
| 20260508191518 | 61 | 63 | 0.0 | 0.0 | 0.00 | 0.00 | 0.00 | 57 | 1016.7 |
| 20260508190019 | 61 | 63 | 0.0 | 0.0 | 0.00 | 0.00 | 0.00 | 56 | 1016.5 |
| 20260508184524 | 62 | 63 | 0.0 | 0.9 | 0.00 | 0.00 | 0.00 | 54 | 1016.4 |
| 20260508183015 | 63 | 267 | 0.0 | 0.0 | 0.00 | 0.00 | 0.00 | 53 | 1016.1 |
| 20260508181515 | 64 | 267 | 0.0 | 0.0 | 0.00 | 0.00 | 0.00 | 51 | 1015.8 |
| 20260508180014 | 65 | 267 | 0.0 | 1.7 | 0.00 | 0.00 | 0.00 | 49 | 1015.6 |
| 20260508174514 | 66 | 49 | 0.0 | 1.7 | 0.00 | 0.00 | 0.00 | 47 | 1015.4 |
| 20260508173017 | 67 | 67 | 0.9 | 3.5 | 0.00 | 0.00 | 0.00 | 46 | 1015.3 |
| 20260508171528 | 68 | 169 | 0.0 | 1.7 | 0.00 | 0.00 | 0.00 | 44 | 1015.1 |
| 20260508170012 | 69 | 86 | 0.0 | 2.6 | 0.00 | 0.00 | 0.00 | 44 | 1015.0 |
| 20260508164512 | 69 | 5 | 0.0 | 0.9 | 0.00 | 0.00 | 0.00 | 43 | 1014.9 |
| 20260508163011 | 70 | 121 | 0.0 | 0.9 | 0.00 | 0.00 | 0.00 | 43 | 1015.0 |
| 20260508161517 | 70 | 101 | 0.0 | 1.7 | 0.00 | 0.00 | 0.00 | 42 | 1015.0 |
| 20260508160010 | 70 | 128 | 0.0 | 1.7 | 0.00 | 0.00 | 0.00 | 42 | 1015.0 |
| 20260508154510 | 71 | 103 | 0.0 | 1.7 | 0.00 | 0.00 | 0.00 | 42 | 1015.0 |
| 20260508153010 | 72 | 188 | 0.0 | 1.7 | 0.00 | 0.00 | 0.00 | 41 | 1014.9 |
| 20260508151509 | 72 | 169 | 0.0 | 1.7 | 0.00 | 0.00 | 0.00 | 42 | 1015.0 |
| 20260508150018 | 72 | 349 | 0.0 | 0.9 | 0.00 | 0.00 | 0.00 | 42 | 1015.1 |
| 20260508144514 | 73 | 51 | 0.0 | 0.9 | 0.00 | 0.00 | 0.00 | 40 | 1015.1 |
| 20260508143022 | 73 | 348 | 0.0 | 2.6 | 0.00 | 0.00 | 0.00 | 42 | 1015.2 |
| 20260508141507 | 73 | 303 | 0.0 | 5.2 | 0.00 | 0.00 | 0.00 | 39 | 1015.3 |
| 20260508140002 | 74 | 60 | 0.0 | 2.6 | 0.00 | 0.00 | 0.00 | 41 | 1015.4 |
| 20260508134604 | 73 | 234 | 0.0 | 4.3 | 0.00 | 0.00 | 0.00 | 42 | 1015.4 |
| 20260508133058 | 73 | 336 | 0.0 | 1.7 | 0.00 | 0.00 | 0.00 | 42 | 1015.6 |
| 20260508131558 | 72 | 76 | 0.0 | 4.3 | 0.00 | 0.00 | 0.00 | 43 | 1015.7 |
| 20260508130053 | 70 | 322 | 0.0 | 4.3 | 0.00 | 0.00 | 0.00 | 45 | 1015.9 |
| 20260508124559 | 69 | 309 | 0.0 | 7.0 | 0.00 | 0.00 | 0.00 | 45 | 1016.1 |
| 20260508123052 | 69 | 300 | 0.0 | 2.6 | 0.00 | 0.00 | 0.00 | 45 | 1016.1 |
| 20260508121551 | 70 | 344 | 0.0 | 2.6 | 0.00 | 0.00 | 0.00 | 45 | 1016.1 |
| 20260508120049 | 71 | 311 | 0.0 | 4.3 | 0.00 | 0.00 | 0.00 | 44 | 1016.1 |
| 20260508114547 | 70 | 315 | 0.9 | 5.2 | 0.00 | 0.00 | 0.00 | 44 | 1016.1 |
| 20260508113110 | 69 | 231 | 0.0 | 3.5 | 0.00 | 0.00 | 0.00 | 46 | 1016.3 |
| 20260508111544 | 68 | 321 | 0.0 | 4.3 | 0.00 | 0.00 | 0.00 | 49 | 1016.5 |
| 20260508110043 | 68 | 328 | 0.9 | 2.6 | 0.00 | 0.00 | 0.00 | 46 | 1016.5 |
| 20260508104553 | 68 | 82 | 0.0 | 2.6 | 0.00 | 0.00 | 0.00 | 46 | 1016.6 |
| 20260508103041 | 67 | 67 | 0.0 | 0.9 | 0.00 | 0.00 | 0.00 | 51 | 1016.7 |
| 20260508101543 | 66 | 330 | 0.0 | 3.5 | 0.00 | 0.00 | 0.00 | 50 | 1016.8 |
| 20260508100041 | 65 | 340 | 0.0 | 2.6 | 0.00 | 0.00 | 0.00 | 50 | 1017.0 |
| 20260508094539 | 67 | 145 | 0.0 | 1.7 | 0.00 | 0.00 | 0.00 | 49 | 1017.0 |
| 20260508093038 | 68 | 188 | 0.0 | 2.6 | 0.00 | 0.00 | 0.00 | 50 | 1017.0 |
| 20260508091534 | 66 | 35 | 0.0 | 3.5 | 0.00 | 0.00 | 0.00 | 51 | 1017.2 |
| 20260508090042 | 66 | 311 | 0.9 | 3.5 | 0.00 | 0.00 | 0.00 | 50 | 1017.3 |
| 20260508084530 | 65 | 100 | 0.0 | 4.3 | 0.00 | 0.00 | 0.00 | 53 | 1017.3 |
| 20260508083037 | 64 | 150 | 0.0 | 3.5 | 0.00 | 0.00 | 0.00 | 55 | 1017.3 |
| 20260508081529 | 63 | 331 | 0.0 | 4.3 | 0.00 | 0.00 | 0.00 | 55 | 1017.3 |
| 20260508080026 | 64 | 18 | 0.0 | 1.7 | 0.00 | 0.00 | 0.00 | 57 | 1017.3 |
| 20260508074523 | 62 | 336 | 0.0 | 1.7 | 0.00 | 0.00 | 0.00 | 60 | 1017.3 |
| 20260508073026 | 63 | 300 | 0.9 | 3.5 | 0.00 | 0.00 | 0.00 | 59 | 1017.3 |